User: anonymous   Login
Location: Unspecified
(0.0000°N, 0.0000°E)
Time: 20:41:24
(UTC+00:00)
Language:

COSMOS 2490 - Orbit

View from above orbital plane
View from above orbital plane
View from above satellite
View from above satellite

Ground track
Ground track

The orbit data is extracted from the following two-line orbital elements,

1 39485U 13076C   17172.70850488 +.00000010 +00000-0 +00000-0 0  9995
2 39485 082.4843 054.2465 0022639 065.2189 295.1246 12.42883840158327
Epoch (UTC): 21 June 2017 17:00:14
Eccentricity: 0.0022639
inclination: 82.4843°
perigee height: 1476 km
apogee height: 1512 km
right ascension of ascending node: 54.2465°
argument of perigee: 65.2189°
revolutions per day: 12.42883840
mean anomaly at epoch: 295.1246°
orbit number at epoch: 15832

The dashed part of the orbit path shows where the satellite is in the earth's shadow,  

DLR